Voltar ao catálogo

FENGYUN 1C DEB

AtivoSSO
NORAD 30770·DEBRIS·🇨🇳 China

Lançado May 10, 1999 de Taiyuan Satellite Launch Center

Loading…

Próximas Passagens (próximas 24 horas)

TLE

AtualizadoSource: Space-Track

Época: Sep 14, 2026, 11:44 UTC

1 30770U 99025AUG 26257.48916159  .00000311  00000-0  17936-3 0  9991
2 30770  98.6575 260.6867 0012907 210.2933 312.1560 14.15977852  8008

Acompanhe FENGYUN 1C DEB em tempo real com AllMySat

Download on the App Store